Year,Month,Day,Hour,Minute,Value (Times are PST for temperature in C)
2007,01,27,00,00,0.10
2007,01,27,00,01,0.20
2007,01,27,00,02,0.20
2007,01,27,00,03,0.20
2007,01,27,00,04,0.20
2007,01,27,00,05,0.30
2007,01,27,00,06,0.30
2007,01,27,00,07,0.40
2007,01,27,00,08,0.40
2007,01,27,00,09,0.40
2007,01,27,00,10,0.40
2007,01,27,00,11,0.50
2007,01,27,00,12,0.60
2007,01,27,00,13,0.70
2007,01,27,00,14,0.70
2007,01,27,00,15,0.80
2007,01,27,00,16,0.80
2007,01,27,00,17,0.80
2007,01,27,00,18,0.80
2007,01,27,00,19,0.80
2007,01,27,00,20,0.80
2007,01,27,00,21,0.80
2007,01,27,00,22,0.80
2007,01,27,00,23,0.80
2007,01,27,00,24,0.80
2007,01,27,00,25,0.80
2007,01,27,00,26,0.80
2007,01,27,00,27,0.80
2007,01,27,00,28,0.80
2007,01,27,00,29,0.80
2007,01,27,00,30,0.80
2007,01,27,00,31,0.80
2007,01,27,00,32,0.80
2007,01,27,00,33,0.80
2007,01,27,00,34,0.80
2007,01,27,00,35,0.80
2007,01,27,00,36,0.80
2007,01,27,00,37,0.90
2007,01,27,00,38,0.90
2007,01,27,00,39,1.00
2007,01,27,00,40,1.00
2007,01,27,00,41,1.10
2007,01,27,00,42,1.20
2007,01,27,00,43,1.20
2007,01,27,00,44,1.30
2007,01,27,00,45,1.30
2007,01,27,00,46,1.40
2007,01,27,00,47,1.50
2007,01,27,00,48,1.50
2007,01,27,00,49,1.50
2007,01,27,00,50,1.50
2007,01,27,00,51,1.50
2007,01,27,00,52,1.40
2007,01,27,00,53,1.40
2007,01,27,00,54,1.40
2007,01,27,00,55,1.40
2007,01,27,00,56,1.30
2007,01,27,00,57,1.30
2007,01,27,00,58,1.30
2007,01,27,00,59,1.30
2007,01,27,01,00,1.30
2007,01,27,01,01,1.30
2007,01,27,01,02,1.30
2007,01,27,01,03,1.30
2007,01,27,01,04,1.30
2007,01,27,01,05,1.30
2007,01,27,01,06,1.30
2007,01,27,01,07,1.30
2007,01,27,01,08,1.30
2007,01,27,01,09,1.30
2007,01,27,01,10,1.30
2007,01,27,01,11,1.30
2007,01,27,01,12,1.30
2007,01,27,01,13,1.30
2007,01,27,01,14,1.40
2007,01,27,01,15,1.40
2007,01,27,01,16,1.50
2007,01,27,01,17,1.50
2007,01,27,01,18,1.60
2007,01,27,01,19,1.60
2007,01,27,01,20,1.70
2007,01,27,01,21,1.70
2007,01,27,01,22,1.70
2007,01,27,01,23,1.80
2007,01,27,01,24,1.80
2007,01,27,01,25,1.80
2007,01,27,01,26,1.80
2007,01,27,01,27,1.80
2007,01,27,01,28,1.80
2007,01,27,01,29,1.80
2007,01,27,01,30,1.80
2007,01,27,01,31,1.80
2007,01,27,01,32,1.80
2007,01,27,01,33,1.80
2007,01,27,01,34,1.70
2007,01,27,01,35,1.70
2007,01,27,01,36,1.70
2007,01,27,01,37,1.60
2007,01,27,01,38,1.50
2007,01,27,01,39,1.50
2007,01,27,01,40,1.40
2007,01,27,01,41,1.40
2007,01,27,01,42,1.40
2007,01,27,01,43,1.40
2007,01,27,01,44,1.40
2007,01,27,01,45,1.50
2007,01,27,01,46,1.60
2007,01,27,01,47,1.60
2007,01,27,01,48,1.70
2007,01,27,01,49,1.70
2007,01,27,01,50,1.70
2007,01,27,01,51,1.70
2007,01,27,01,52,1.70
2007,01,27,01,53,1.70
2007,01,27,01,54,1.70
2007,01,27,01,55,1.70
2007,01,27,01,56,1.70
2007,01,27,01,57,1.70
2007,01,27,01,58,1.60
2007,01,27,01,59,1.50
2007,01,27,02,00,1.50
2007,01,27,02,01,1.50
2007,01,27,02,02,1.50
2007,01,27,02,03,1.40
2007,01,27,02,04,1.50
2007,01,27,02,05,1.50
2007,01,27,02,06,1.40
2007,01,27,02,07,1.40
2007,01,27,02,08,1.40
2007,01,27,02,09,1.40
2007,01,27,02,10,1.40
2007,01,27,02,11,1.40
2007,01,27,02,12,1.40
2007,01,27,02,13,1.30
2007,01,27,02,14,1.20
2007,01,27,02,15,1.20
2007,01,27,02,16,1.20
2007,01,27,02,17,1.20
2007,01,27,02,18,1.30
2007,01,27,02,19,1.30
2007,01,27,02,20,1.30
2007,01,27,02,21,1.30
2007,01,27,02,22,1.30
2007,01,27,02,23,1.30
2007,01,27,02,24,1.30
2007,01,27,02,25,1.30
2007,01,27,02,26,1.30
2007,01,27,02,27,1.20
2007,01,27,02,28,1.20
2007,01,27,02,29,1.10
2007,01,27,02,30,1.00
2007,01,27,02,31,1.00
2007,01,27,02,32,1.00
2007,01,27,02,33,0.90
2007,01,27,02,34,0.90
2007,01,27,02,35,0.80
2007,01,27,02,36,0.80
2007,01,27,02,37,0.80
2007,01,27,02,38,0.80
2007,01,27,02,39,0.80
2007,01,27,02,40,0.80
2007,01,27,02,41,0.80
2007,01,27,02,42,0.80
2007,01,27,02,43,0.80
2007,01,27,02,44,0.80
2007,01,27,02,45,0.80
2007,01,27,02,46,0.70
2007,01,27,02,47,0.60
2007,01,27,02,48,0.60
2007,01,27,02,49,0.50
2007,01,27,02,50,0.50
2007,01,27,02,51,0.40
2007,01,27,02,52,0.40
2007,01,27,02,53,0.40
2007,01,27,02,54,0.40
2007,01,27,02,55,0.30
2007,01,27,02,56,0.30
2007,01,27,02,57,0.20
2007,01,27,02,58,0.20
2007,01,27,02,59,0.20
2007,01,27,03,00,0.20
2007,01,27,03,01,0.20
2007,01,27,03,02,0.10
2007,01,27,03,03,0.10
2007,01,27,03,04,0.10
2007,01,27,03,05,0.10
2007,01,27,03,06,0.10
2007,01,27,03,07,0.10
2007,01,27,03,08,0.10
2007,01,27,03,09,0.10
2007,01,27,03,10,0.10
2007,01,27,03,11,0.10
2007,01,27,03,12,0.10
2007,01,27,03,13,0.10
2007,01,27,03,14,0.10
2007,01,27,03,15,0.10
2007,01,27,03,16,0.10
2007,01,27,03,17,0.20
2007,01,27,03,18,0.20
2007,01,27,03,19,0.20
2007,01,27,03,20,0.20
2007,01,27,03,21,0.20
2007,01,27,03,22,0.30
2007,01,27,03,23,0.30
2007,01,27,03,24,0.40
2007,01,27,03,25,0.40
2007,01,27,03,26,0.40
2007,01,27,03,27,0.40
2007,01,27,03,28,0.40
2007,01,27,03,29,0.40
2007,01,27,03,30,0.30
2007,01,27,03,31,0.30
2007,01,27,03,32,0.20
2007,01,27,03,33,0.20
2007,01,27,03,34,0.20
2007,01,27,03,35,0.20
2007,01,27,03,36,0.10
2007,01,27,03,37,0.10
2007,01,27,03,38,0.10
2007,01,27,03,39,0.10
2007,01,27,03,40,0.10
2007,01,27,03,41,0.10
2007,01,27,03,42,0.10
2007,01,27,03,43,0.10
2007,01,27,03,44,0.10
2007,01,27,03,45,0.10
2007,01,27,03,46,0.10
2007,01,27,03,47,0.10
2007,01,27,03,48,0.10
2007,01,27,03,49,0.10
2007,01,27,03,50,0.10
2007,01,27,03,51,0.10
2007,01,27,03,52,0.10
2007,01,27,03,53,0.10
2007,01,27,03,54,0.10
2007,01,27,03,55,0.10
2007,01,27,03,56,0.10
2007,01,27,03,57,0.10
2007,01,27,03,58,0.10
2007,01,27,03,59,0.10
2007,01,27,04,00,0.10
2007,01,27,04,01,0.10
2007,01,27,04,02,0.10
2007,01,27,04,03,0.10
2007,01,27,04,04,0.10
2007,01,27,04,05,0.10
2007,01,27,04,06,0.10
2007,01,27,04,07,0.10
2007,01,27,04,08,0.10
2007,01,27,04,09,0.10
2007,01,27,04,10,0.10
2007,01,27,04,11,0.10
2007,01,27,04,12,0.10
2007,01,27,04,13,0.10
2007,01,27,04,14,0.10
2007,01,27,04,15,0.10
2007,01,27,04,16,0.10
2007,01,27,04,17,0.10
2007,01,27,04,18,0.20
2007,01,27,04,19,0.20
2007,01,27,04,20,0.20
2007,01,27,04,21,0.30
2007,01,27,04,22,0.40
2007,01,27,04,23,0.40
2007,01,27,04,24,0.50
2007,01,27,04,25,0.50
2007,01,27,04,26,0.50
2007,01,27,04,27,0.50
2007,01,27,04,28,0.40
2007,01,27,04,29,0.40
2007,01,27,04,30,0.40
2007,01,27,04,31,0.40
2007,01,27,04,32,0.40
2007,01,27,04,33,0.40
2007,01,27,04,34,0.40
2007,01,27,04,35,0.40
2007,01,27,04,36,0.50
2007,01,27,04,37,0.50
2007,01,27,04,38,0.50
2007,01,27,04,39,0.50
2007,01,27,04,40,0.50
2007,01,27,04,41,0.40
2007,01,27,04,42,0.40
2007,01,27,04,43,0.40
2007,01,27,04,44,0.40
2007,01,27,04,45,0.30
2007,01,27,04,46,0.30
2007,01,27,04,47,0.30
2007,01,27,04,48,0.20
2007,01,27,04,49,0.20
2007,01,27,04,50,0.20
2007,01,27,04,51,0.20
2007,01,27,04,52,0.20
2007,01,27,04,53,0.20
2007,01,27,04,54,0.20
2007,01,27,04,55,0.20
2007,01,27,04,56,0.30
2007,01,27,04,57,0.30
2007,01,27,04,58,0.30
2007,01,27,04,59,0.30
2007,01,27,05,00,0.40
2007,01,27,05,01,0.40
2007,01,27,05,02,0.40
2007,01,27,05,03,0.40
2007,01,27,05,04,0.40
2007,01,27,05,05,0.40
2007,01,27,05,06,0.30
2007,01,27,05,07,0.30
2007,01,27,05,08,0.30
2007,01,27,05,09,0.20
2007,01,27,05,10,0.20
2007,01,27,05,11,0.20
2007,01,27,05,12,0.10
2007,01,27,05,13,0.10
2007,01,27,05,14,0.10
2007,01,27,05,15,0.10
2007,01,27,05,16,0.10
2007,01,27,05,17,0.00
2007,01,27,05,18,0.00
2007,01,27,05,19,-0.10
2007,01,27,05,20,0.10
2007,01,27,05,21,0.10
2007,01,27,05,22,0.10
2007,01,27,05,23,0.10
2007,01,27,05,24,0.10
2007,01,27,05,25,0.10
2007,01,27,05,26,0.10
2007,01,27,05,27,0.10
2007,01,27,05,28,0.10
2007,01,27,05,29,0.10
2007,01,27,05,30,0.10
2007,01,27,05,31,0.10
2007,01,27,05,32,0.10
2007,01,27,12,36,8.80
2007,01,27,12,37,8.80
2007,01,27,12,38,8.80
2007,01,27,12,39,8.80
2007,01,27,12,40,8.80
2007,01,27,12,41,8.80
2007,01,27,12,42,8.70
2007,01,27,12,43,8.70
2007,01,27,12,44,8.80
2007,01,27,12,45,8.80
2007,01,27,12,46,8.80
2007,01,27,12,47,8.80
2007,01,27,12,48,8.80
2007,01,27,12,49,8.80
2007,01,27,12,50,8.70
2007,01,27,12,51,8.70
2007,01,27,12,52,8.70
2007,01,27,12,53,8.60
2007,01,27,12,54,8.60
2007,01,27,12,55,8.60
2007,01,27,12,56,8.60
2007,01,27,12,57,8.50
2007,01,27,12,58,8.50
2007,01,27,12,59,8.50
2007,01,27,13,00,8.50
2007,01,27,13,01,8.50
2007,01,27,13,02,8.50
2007,01,27,13,03,8.50
2007,01,27,13,04,8.50
2007,01,27,13,05,8.60
2007,01,27,13,06,8.60
2007,01,27,13,07,8.60
2007,01,27,13,08,8.70
2007,01,27,13,09,8.70
2007,01,27,13,10,8.70
2007,01,27,13,11,8.70
2007,01,27,13,12,8.80
2007,01,27,13,13,8.90
2007,01,27,13,14,8.90
2007,01,27,13,15,9.00
2007,01,27,13,16,9.00
2007,01,27,13,17,9.10
2007,01,27,13,18,9.10
2007,01,27,13,19,9.10
2007,01,27,13,20,9.20
2007,01,27,13,21,9.20
2007,01,27,13,22,9.20
2007,01,27,13,23,9.20
2007,01,27,13,24,9.20
2007,01,27,13,25,9.20
2007,01,27,13,26,9.20
2007,01,27,13,27,9.20
2007,01,27,13,28,9.20
2007,01,27,13,29,9.30
2007,01,27,13,30,9.30
2007,01,27,13,31,9.30
2007,01,27,13,32,9.40
2007,01,27,13,33,9.40
2007,01,27,13,34,9.40
2007,01,27,13,35,9.40
2007,01,27,13,36,9.40
2007,01,27,13,37,9.30
2007,01,27,13,38,9.30
2007,01,27,13,39,9.30
2007,01,27,13,40,9.30
2007,01,27,13,41,9.40
2007,01,27,13,42,9.40
2007,01,27,13,43,9.30
2007,01,27,13,44,9.30
2007,01,27,13,45,9.30
2007,01,27,13,46,9.30
2007,01,27,13,47,9.30
2007,01,27,13,48,9.30
2007,01,27,13,49,9.30
2007,01,27,13,50,9.10
2007,01,27,13,51,9.20
2007,01,27,13,52,9.20
2007,01,27,13,53,9.20
2007,01,27,13,54,9.20
2007,01,27,13,55,9.20
2007,01,27,13,56,9.20
2007,01,27,13,57,9.30
2007,01,27,13,58,9.30
2007,01,27,13,59,9.30
2007,01,27,14,00,9.30
2007,01,27,14,01,9.30
2007,01,27,14,02,9.30
2007,01,27,14,03,9.30
2007,01,27,14,04,9.30
2007,01,27,14,05,9.30
2007,01,27,14,06,9.30
2007,01,27,14,07,9.30
2007,01,27,14,08,9.30
2007,01,27,14,09,9.20
2007,01,27,14,10,9.20
2007,01,27,14,11,9.20
2007,01,27,14,12,9.20
2007,01,27,14,13,9.20
2007,01,27,14,14,9.20
2007,01,27,14,15,9.20
2007,01,27,14,16,9.30
2007,01,27,14,17,9.30
2007,01,27,14,18,9.30
2007,01,27,14,19,9.20
2007,01,27,14,20,9.20
2007,01,27,14,21,9.20
2007,01,27,14,22,9.20
2007,01,27,14,23,9.30
2007,01,27,14,24,9.30
2007,01,27,14,25,9.40
2007,01,27,14,26,9.50
2007,01,27,14,27,9.60
2007,01,27,14,28,9.60
2007,01,27,14,29,9.70
2007,01,27,14,30,9.70
2007,01,27,14,31,9.70
2007,01,27,14,32,9.70
2007,01,27,14,33,9.70
2007,01,27,14,34,9.80
2007,01,27,14,35,9.80
2007,01,27,14,36,9.80
2007,01,27,14,37,9.80
2007,01,27,14,38,9.90
2007,01,27,14,39,9.90
2007,01,27,14,40,9.80
2007,01,27,14,41,9.80
2007,01,27,14,42,9.70
2007,01,27,14,43,9.60
2007,01,27,14,44,9.60
2007,01,27,14,45,9.50
2007,01,27,14,46,9.50
2007,01,27,14,47,9.50
2007,01,27,14,48,9.50
2007,01,27,14,49,9.50
2007,01,27,14,50,9.30
2007,01,27,14,51,9.30
2007,01,27,14,52,9.30
2007,01,27,14,53,9.40
2007,01,27,14,54,9.40
2007,01,27,14,55,9.50
2007,01,27,14,56,9.50
2007,01,27,14,57,9.60
2007,01,27,14,58,9.60
2007,01,27,14,59,9.60
2007,01,27,15,00,9.60
2007,01,27,15,01,9.70
2007,01,27,15,02,9.70
2007,01,27,15,03,9.70
2007,01,27,15,04,9.70
2007,01,27,15,05,9.70
2007,01,27,15,06,9.70
2007,01,27,15,07,9.70
2007,01,27,15,08,9.70
2007,01,27,15,09,9.80
2007,01,27,15,10,9.80
2007,01,27,15,11,9.80
2007,01,27,15,12,9.80
2007,01,27,15,13,9.80
2007,01,27,15,14,9.80
2007,01,27,15,15,9.80
2007,01,27,15,16,9.80
2007,01,27,15,17,9.80
2007,01,27,15,18,9.80
2007,01,27,15,19,9.80
2007,01,27,15,20,9.70
2007,01,27,15,21,9.80
2007,01,27,15,22,9.80
2007,01,27,15,23,9.80
2007,01,27,15,24,9.80
2007,01,27,15,25,9.80
2007,01,27,15,26,9.70
2007,01,27,15,27,9.70
2007,01,27,15,28,9.70
2007,01,27,15,29,9.70
2007,01,27,15,30,9.60
2007,01,27,15,31,9.60
2007,01,27,15,32,9.50
2007,01,27,15,33,9.50
2007,01,27,15,34,9.50
2007,01,27,15,35,9.50
2007,01,27,15,36,9.50
2007,01,27,15,37,9.40
2007,01,27,15,38,9.40
2007,01,27,15,39,9.40
2007,01,27,15,40,9.40
2007,01,27,15,41,9.40
2007,01,27,15,42,9.40
2007,01,27,15,43,9.30
2007,01,27,15,44,9.30
2007,01,27,15,45,9.30
2007,01,27,15,46,9.20
2007,01,27,15,47,9.20
2007,01,27,15,48,9.10
2007,01,27,15,49,9.10
2007,01,27,15,50,9.00
2007,01,27,15,51,9.00
2007,01,27,15,52,8.90
2007,01,27,15,53,8.90
2007,01,27,15,54,8.90
2007,01,27,15,55,8.90
2007,01,27,15,56,8.80
2007,01,27,15,57,8.70
2007,01,27,15,58,8.70
2007,01,27,15,59,8.70
2007,01,27,16,00,8.70
2007,01,27,16,01,8.70
2007,01,27,16,02,8.70
2007,01,27,16,03,8.70
2007,01,27,16,04,8.70
2007,01,27,16,05,8.70
2007,01,27,16,06,8.60
2007,01,27,16,07,8.60
2007,01,27,16,08,8.60
2007,01,27,16,09,8.60
2007,01,27,16,10,8.50
2007,01,27,16,11,8.50
2007,01,27,16,12,8.50
2007,01,27,16,13,8.50
2007,01,27,16,14,8.50
2007,01,27,16,15,8.50
2007,01,27,16,16,8.50
2007,01,27,16,17,8.40
2007,01,27,16,18,8.50
2007,01,27,16,19,8.50
2007,01,27,16,20,8.50
2007,01,27,16,21,8.50
2007,01,27,16,22,8.40
2007,01,27,16,23,8.40
2007,01,27,16,24,8.30
2007,01,27,16,25,8.30
2007,01,27,16,26,8.30
2007,01,27,16,27,8.20
2007,01,27,16,28,8.20
2007,01,27,16,29,8.20
2007,01,27,16,30,8.20
2007,01,27,16,31,8.10
2007,01,27,16,32,8.10
2007,01,27,16,33,8.10
2007,01,27,16,34,8.10
2007,01,27,16,35,8.00
2007,01,27,16,36,8.00
2007,01,27,16,37,8.00
2007,01,27,16,38,8.00
2007,01,27,16,39,8.00
2007,01,27,16,40,8.00
2007,01,27,16,41,8.00
2007,01,27,16,42,8.00
2007,01,27,16,43,7.90
2007,01,27,16,44,7.90
2007,01,27,16,45,7.90
2007,01,27,16,46,7.90
2007,01,27,16,47,7.90
2007,01,27,16,48,7.80
2007,01,27,16,49,7.80
2007,01,27,16,50,7.80
2007,01,27,16,51,7.80
2007,01,27,16,52,7.80
2007,01,27,16,53,7.80
2007,01,27,16,54,7.80
2007,01,27,16,55,7.70
2007,01,27,16,56,7.70
2007,01,27,16,57,7.70
2007,01,27,16,58,7.70
2007,01,27,16,59,7.60
2007,01,27,17,00,7.60
2007,01,27,17,01,7.60
2007,01,27,17,02,7.50
2007,01,27,17,03,7.50
2007,01,27,17,04,7.50
2007,01,27,17,05,7.50
2007,01,27,17,06,7.40
2007,01,27,17,07,7.40
2007,01,27,17,08,7.40
2007,01,27,17,09,7.30
2007,01,27,17,10,7.30
2007,01,27,17,11,7.30
2007,01,27,17,12,7.30
2007,01,27,17,13,7.30
2007,01,27,17,14,7.30
2007,01,27,17,15,7.20
2007,01,27,17,16,7.20
2007,01,27,17,17,7.10
2007,01,27,17,18,7.10
2007,01,27,17,19,7.00
2007,01,27,17,20,7.00
2007,01,27,17,21,7.00
2007,01,27,17,22,6.90
2007,01,27,17,23,6.90
2007,01,27,17,24,6.80
2007,01,27,17,25,6.80
2007,01,27,17,26,6.80
2007,01,27,17,27,6.80
2007,01,27,17,28,6.80
2007,01,27,17,29,6.70
2007,01,27,17,30,6.70
2007,01,27,17,31,6.70
2007,01,27,17,32,6.60
2007,01,27,17,33,6.60
2007,01,27,17,34,6.60
2007,01,27,17,35,6.60
2007,01,27,17,36,6.50
2007,01,27,17,37,6.40
2007,01,27,17,38,6.40
2007,01,27,17,39,6.40
2007,01,27,17,40,6.40
2007,01,27,17,41,6.40
2007,01,27,17,42,6.40
2007,01,27,17,43,6.40
2007,01,27,17,44,6.40
2007,01,27,17,45,6.40
2007,01,27,17,46,6.30
2007,01,27,17,47,6.30
2007,01,27,17,48,6.30
2007,01,27,17,49,6.30
2007,01,27,17,50,6.30
2007,01,27,17,51,6.30
2007,01,27,17,52,6.20
2007,01,27,17,53,6.20
2007,01,27,17,54,6.20
2007,01,27,17,55,6.20
2007,01,27,17,56,6.20
2007,01,27,17,57,6.20
2007,01,27,17,58,6.20
2007,01,27,17,59,6.10
2007,01,27,18,00,6.10
2007,01,27,18,01,6.00
2007,01,27,18,02,6.00
2007,01,27,18,03,6.00
2007,01,27,18,04,5.90
2007,01,27,18,05,5.90
2007,01,27,18,06,5.90
2007,01,27,18,07,5.90
2007,01,27,18,08,5.80
2007,01,27,18,09,5.80
2007,01,27,18,10,5.70
2007,01,27,18,11,5.70
2007,01,27,18,12,5.70
2007,01,27,18,13,5.70
2007,01,27,18,14,5.70
2007,01,27,18,15,5.70
2007,01,27,18,16,5.70
2007,01,27,18,17,5.60
2007,01,27,18,18,5.60
2007,01,27,18,19,5.60
2007,01,27,18,20,5.60
2007,01,27,18,21,5.60
2007,01,27,18,22,5.60
2007,01,27,18,23,5.60
2007,01,27,18,24,5.60
2007,01,27,18,25,5.50
2007,01,27,18,26,5.50
2007,01,27,18,27,5.50
2007,01,27,18,28,5.50
2007,01,27,18,29,5.50
2007,01,27,18,30,5.40
2007,01,27,18,31,5.40
2007,01,27,18,32,5.40
2007,01,27,18,33,5.40
2007,01,27,18,34,5.40
2007,01,27,18,35,5.40
2007,01,27,18,36,5.40
2007,01,27,18,37,5.40
2007,01,27,18,38,5.40
2007,01,27,18,39,5.40
2007,01,27,18,40,5.40
2007,01,27,18,41,5.40
2007,01,27,18,42,5.40
2007,01,27,18,43,5.30
2007,01,27,18,44,5.30
2007,01,27,18,45,5.30
2007,01,27,18,46,5.30
2007,01,27,18,47,5.30
2007,01,27,18,48,5.30
2007,01,27,18,49,5.30
2007,01,27,18,50,5.30
2007,01,27,18,51,5.30
2007,01,27,18,52,5.30
2007,01,27,18,53,5.20
2007,01,27,18,54,5.20
2007,01,27,18,55,5.20
2007,01,27,18,56,5.20
2007,01,27,18,57,5.20
2007,01,27,18,58,5.20
2007,01,27,18,59,5.10
2007,01,27,19,00,5.10
2007,01,27,19,01,5.10
2007,01,27,19,02,5.10
2007,01,27,19,03,5.10
2007,01,27,19,04,5.10
2007,01,27,19,05,5.10
2007,01,27,19,06,5.10
2007,01,27,19,07,5.10
2007,01,27,19,08,5.10
2007,01,27,19,09,5.10
2007,01,27,19,10,5.10
2007,01,27,19,11,5.20
2007,01,27,19,12,5.20
2007,01,27,19,13,5.10
2007,01,27,19,14,5.10
2007,01,27,19,15,5.10
2007,01,27,19,16,5.10
2007,01,27,19,17,5.10
2007,01,27,19,18,5.10
2007,01,27,19,19,5.10
2007,01,27,19,20,5.10
2007,01,27,19,21,5.10
2007,01,27,19,22,5.10
2007,01,27,19,23,5.10
2007,01,27,19,24,5.10
2007,01,27,19,25,5.10
2007,01,27,19,26,5.10
2007,01,27,19,27,5.10
2007,01,27,19,28,5.10
2007,01,27,19,29,5.10
2007,01,27,19,30,5.10
2007,01,27,19,31,5.00
2007,01,27,19,32,4.90
2007,01,27,19,33,4.90
2007,01,27,19,34,4.90
2007,01,27,19,35,4.90
2007,01,27,19,36,4.90
2007,01,27,19,37,4.90
2007,01,27,19,38,4.90
2007,01,27,19,39,4.90
2007,01,27,19,40,4.90
2007,01,27,19,41,4.90
2007,01,27,19,42,4.90
2007,01,27,19,43,4.90
2007,01,27,19,44,4.90
2007,01,27,19,45,4.90
2007,01,27,19,46,4.90
2007,01,27,19,47,4.90
